Regional Weather Roundup
Issued by NWS

Home | Current Version | Previous Version | Text Only | Print | Product List | Glossary On
Versions: 1 2 3 4 5 6 7 8 9 10 11 12 13 14 15 16 17 18 19 20 21 22 23 24 25 26 27 28 29 30 31 32 33 34 35 36 37 38 39 40 41 42 43 44 45 46 47 48 49 50
000
ASUS43 KLSX 101210
RWRMO

WEATHER SUMMARY FOR MISSOURI
NATIONAL WEATHER SERVICE SPRINGFIELD MO
600 AM CST WED FEB 10 2016

NOTE: "FAIR" INDICATES FEW OR NO CLOUDS BELOW 12,000 FEET WITH NO
       SIGNIFICANT WEATHER AND/OR OBSTRUCTIONS TO VISIBILITY.
       CURRENT SKY AND/OR WEATHER CONDITIONS ARE NOT AVAILABLE FOR
       CHILLICOTHE AND FARMINGTON.

MOZ001>031-035>038-043-044-053-054-101300-
...NORTHERN AND WESTERN MISSOURI...

CITY           SKY/WX    TMP DP  RH WIND       PRES   REMARKS
KANSAS CTY INT CLOUDY    23  15  71 SW6       30.15S WCI  16
6HR MIN TEMP:  17; 6HR MAX TEMP:  23;

KANSAS C DTWN  CLOUDY    26  14  60 SW3       30.18S
6HR MIN TEMP:  20; 6HR MAX TEMP:  26;

LEE`S SUMMIT   CLOUDY    23  13  65 W3        30.17S
6HR MIN TEMP:  20; 6HR MAX TEMP:  23;

ST JOSEPH      CLOUDY    24  15  68 S8        30.15S WCI  15
6HR MIN TEMP:  16; 6HR MAX TEMP:  24;

CHILLICOTHE      N/A     17  13  84 S3        30.17S
6HR MIN TEMP:  17; 6HR MAX TEMP:  21;

KIRKSVILLE     PTCLDY    14   7  73 W7        30.14F WCI   4
6HR MIN TEMP:  10; 6HR MAX TEMP:  15;


$$
MOZ066>068-077>081-088>096-101>105-101300-
...SOUTHWEST MISSOURI...

CITY           SKY/WX    TMP DP  RH WIND       PRES   REMARKS
SPRINGFIELD    CLOUDY    20   9  62 W5        30.18F WCI  13
6HR MIN TEMP:  17; 6HR MAX TEMP:  22;

JOPLIN         CLEAR     20  11  68 SW5       30.25S WCI  13
6HR MIN TEMP:  17; 6HR MAX TEMP:  21;


$$
MOZ032>034-039>042-045>050-055>058-069>072-101300-
...CENTRAL MISSOURI...

CITY           SKY/WX    TMP DP  RH WIND       PRES   REMARKS
COLUMBIA       CLEAR     16   8  71 NW7       30.18R WCI   6
6HR MIN TEMP:  14; 6HR MAX TEMP:  18;

JEFFERSON CITY CLEAR     17   9  70 NW3       30.21R
6HR MIN TEMP:  17; 6HR MAX TEMP:  20;

ROLLA          CLEAR     14   8  77 W5        30.14S WCI   6
6HR MIN TEMP:  12; 6HR MAX TEMP:  18;

SEDALIA        MOCLDY    18  10  71 CALM      30.18F
6HR MIN TEMP:  17; 6HR MAX TEMP:  20;

WHITEMAN AFB   CLOUDY    20  12  73 SW6       30.16F WCI  12
WARRENSBURG    MOCLDY    21  14  73 CALM      30.17F
OSAGE BEACH    CLEAR     18   7  62 W5        30.18F WCI  11

$$
MOZ051-052-059>065-101300-
...EAST CENTRAL MISSOURI...

CITY           SKY/WX    TMP DP  RH WIND       PRES   REMARKS
ST LOUIS INTL  CLOUDY    16   6  65 NW10      30.16F WCI   4
6HR MIN TEMP:  16; 6HR MAX TEMP:  20; 6HR PCP: TRACE;

SPIRIT OF STL  CLEAR     14   6  70 W6        30.17F WCI   5
6HR MIN TEMP:  12; 6HR MAX TEMP:  19;

ST CHARLES     CLEAR     15   7  70 NW8       30.17S WCI   4
6HR MIN TEMP:  13; 6HR MAX TEMP:  17;


$$
MOZ072>076-082>087-097>100-106>115-101300-
...SOUTH CENTRAL AND SOUTHEAST MISSOURI...

CITY           SKY/WX    TMP DP  RH WIND       PRES   REMARKS
CAPE GIRARDEAU CLEAR     16   6  65 NW7       30.21R WCI   6
6HR MIN TEMP:  16; 6HR MAX TEMP:  22;

FARMINGTON     CLEAR     14   6  70 NW7       30.16S WCI   4
6HR MIN TEMP:  14; 6HR MAX TEMP:  19;

POPLAR BLUFF   CLEAR     18   6  59 NW5       30.22R WCI  11
6HR MIN TEMP:  18; 6HR MAX TEMP:  24;

WEST PLAINS    CLEAR     18   6  59 NW5       30.19R WCI  11
6HR MIN TEMP:  18; 6HR MAX TEMP:  22;


$$



USA.gov is the U.S. government's official web portal to all federal, state and local government web resources and services.